EST,Max TemperatureF,Mean TemperatureF,Min TemperatureF,Max Dew PointF,MeanDew PointF,Min DewpointF,Max Humidity, Mean Humidity, Min Humidity, Max Sea Level PressureIn, Mean Sea Level PressureIn, Min Sea Level PressureIn, Max VisibilityMiles, Mean VisibilityMiles, Min VisibilityMiles, Max Wind SpeedMPH, Mean Wind SpeedMPH, Max Gust SpeedMPH,PrecipitationIn, CloudCover, Events, WindDirDegrees
2013-11-1,69,64,57,61,57,52,94,77,56,29.82,29.67,29.59,10,9,0,31,12,40,0.16,4,,223
2013-11-2,66,58,51,55,48,37,94,71,51,29.79,29.68,29.63,10,8,0,13,4,,0.00,5,,349
2013-11-3,51,42,33,39,31,18,76,57,39,30.42,30.09,29.80,10,10,4,17,8,23,0.00,3,,328
2013-11-4,44,38,32,28,21,16,70,50,39,30.64,30.58,30.44,10,10,10,15,8,22,0.00,1,,18
2013-11-5,55,46,37,39,36,28,76,65,54,30.63,30.58,30.48,10,10,10,13,4,16,0.00,4,,105
2013-11-6,60,50,39,54,44,34,88,72,52,30.49,30.32,30.08,10,10,10,13,4,17,0.00,1,,175
2013-11-7,64,52,39,57,48,28,88,75,57,30.07,29.90,29.78,10,10,5,22,10,30,0.09,6,,260
2013-11-8,48,42,35,32,26,23,70,53,40,30.24,30.08,29.96,10,10,10,22,9,32,0.00,3,,286
2013-11-9,50,42,33,30,25,21,70,53,37,30.31,30.20,30.01,10,10,10,13,7,,0.00,0,,246
2013-11-10,60,51,42,36,29,25,66,45,31,30.08,29.95,29.84,10,10,10,25,11,38,0.00,3,,264
2013-11-11,55,46,37,32,26,21,52,42,33,30.23,30.12,29.99,10,10,10,21,12,26,0.00,4,,264
2013-11-12,50,40,30,34,23,12,81,54,41,30.30,30.13,29.95,10,10,3,22,12,28,0.00,4,,308
2013-11-13,39,32,26,16,12,9,59,44,28,30.37,30.33,30.29,10,10,10,20,11,25,0.00,0,,295
2013-11-14,53,40,28,19,15,10,60,36,18,30.30,30.24,30.19,10,10,10,17,10,28,0.00,0,,249
2013-11-15,57,46,35,32,28,21,70,52,29,30.27,30.22,30.18,10,10,10,9,6,,0.00,0,,232
2013-11-16,53,48,42,45,39,28,87,74,57,30.35,30.29,30.25,10,9,2,8,4,,0.05,6,,201
2013-11-17,62,55,48,57,52,43,94,87,82,30.27,30.10,29.81,10,5,0,9,5,,0.00,8,,130
2013-11-18,66,58,51,61,40,25,88,51,27,29.81,29.71,29.64,10,10,3,21,11,31,0.18,3,,252
2013-11-19,50,42,33,27,22,18,52,42,37,30.34,30.07,29.81,10,10,10,25,14,34,0.00,1,,312
2013-11-20,42,36,30,19,15,10,60,44,27,30.59,30.50,30.35,10,10,10,14,7,20,0.00,0,,359
2013-11-21,51,40,30,39,31,14,71,61,51,30.59,30.51,30.40,10,10,10,13,5,21,0.00,6,,77
2013-11-22,57,52,46,46,44,37,82,73,66,30.39,30.13,29.93,10,10,10,13,4,18,0.00,6,,238
2013-11-23,53,42,30,46,24,12,82,48,34,30.04,29.98,29.92,10,10,10,28,14,36,0.00,1,,298
2013-11-24,30,26,23,12,0,-2,47,32,29,30.40,30.21,30.01,10,10,10,34,20,43,0.00,1,,298
2013-11-25,35,27,19,12,7,0,58,43,33,30.51,30.42,30.35,10,10,10,13,8,17,0.00,0,,259
2013-11-26,53,42,32,50,27,14,88,63,39,30.35,30.20,29.74,10,10,5,21,7,26,0.48,7,,160
2013-11-27,62,48,33,59,41,16,88,78,48,29.78,29.49,29.34,10,9,3,23,17,38,1.14,7,,271
2013-11-28,37,32,28,18,12,9,55,45,33,30.48,30.22,29.79,10,10,10,24,14,37,0.00,1,,291
2013-11-29,39,32,26,19,16,14,69,53,39,30.72,30.58,30.47,10,10,10,14,5,,0.00,2,,309
2013-11-30,37,30,24,27,20,10,70,59,48,30.72,30.61,30.35,10,10,10,13,6,17,0.00,3,,28